Weather in Novoklyuchi

Russia / Novosibirsk Oblast     54°14′39″N   78°00′19″E
temp.,
°C
wind,
m/s
gust,
m/s
humid.,
%
clouds,
%
prec.,
mm/h
press.,
hPa
HPBL,
m
7 march, sun
sun701:00−8wsw5118991 0.4 1013264
04:00−12w4791100 0.0 1014107
07:00−15w348981 0.0 101628
10:00−14wsw3589100 0.0 1018109
13:00−10sw468383 0.0 1020237
16:00−8ssw468364 0.0 1020263
19:00−9sse348882 0.0 101952
22:00−8sse61194100 0.0 1017256
8 march, mon
mon801:00−4s81592100 0.0 1015454
04:00−4s71492100 0.0 1011358
07:00−4s71591100 0.0 1010381
10:00−4s81589100 0.0 1007412
13:00−2ssw91483100 0.0 1005650
16:00−1sw91495100 0.1 1005927
19:00−5wnw81390100 1.3 1008588
22:00−11w6139259 0.0 1014313
9 march, tue
tue901:00−14wsw5119450 0.0 1019245
04:00−16sw5109263 0.0 1021178
07:00−16ssw5129347 0.0 1022242
10:00−14ssw7148845 0.0 1022371
13:00−11sw7128537 0.0 1022481
16:00−9sw7118674 0.0 1021505
19:00−10ssw5118987 0.0 1021330
22:00−12ssw4109197 0.0 1021153
10 march, wed
wed1001:00−13ssw499084 0.0 1020146
04:00−14ssw478968 0.0 1018116
07:00−14s468884 0.0 1016108
10:00−13sse4788100 0.0 1013146
13:00−8sse5893100 0.0 1011304
16:00−5sse5894100 0.0 1006378
19:00−1sse71397100 0.2 1000648
22:00+1ssw81699100 3.3 997560
11 march, thu
thu1101:00−4w91491100 3.8 998589
04:00−10wsw71492100 0.1 1003459
07:00−9sw71593100 0.2 1007455
10:00−8sw91590100 0.1 1008878
13:00−9sw101586100 0.3 1011944
16:00−8sw111684100 0.1 10141081
19:00−10sw81486100 0.1 1016738
22:00−10sw61389100 0.1 1018594